"startDT [UTC]","vpos","CH4 [ppm]","stdev(CH4) [ppm]","CO2 [ppm]","stdev(CO2) [ppm]","H2O_reported [%]","stdev(H2O_reported)","CavityPressure [torr]","CavityTemp [C]","OutletValve","CH4_dry [ppm]","CO2_dry [ppm]","DasTemp [C]","EtalonTemp [C]","WarmBoxTemp [C]","MPVPosition","T_ECpre [C]","T_EC1 [C]","T_EC2 [C]","p_inlet [hPa]","p_in [hPa]","p_out [hPa]","T_inlet [C]","RH_inlet [%]","dwpt_inlet [C]","T_vent [C]","RH_vent [%]","dwpt_vent [C]","flow_vent [l min-1]","flow_inlet [l min-1]","dwpt_sample [C]","T_room [C]"
2013-08-28 00:00:00,0.0,1.86254,0.00075,387.282,0.027,1.2827,0.0022,140.003,45.000,31531.94257,1.88709,393.516,33.118,45.054,45.000,0.00,0.12,-272.55,-272.62,-24,584,-6,23.8,34.3,7.1,23.8,35.2,7.5,5.73,2.53,5.2,25.8
2013-08-28 00:01:00,0.0,1.86441,0.00123,387.448,0.113,1.2839,0.0024,140.002,45.000,31533.84886,1.88867,393.667,33.125,45.054,45.000,0.00,0.12,-272.56,-272.63,-24,584,-6,23.8,34.4,7.2,23.8,35.3,7.6,5.73,2.53,5.2,25.8
2013-08-28 00:02:00,0.0,1.86560,0.00107,387.440,0.071,1.2905,0.0015,139.999,45.000,31532.89615,1.89037,393.725,33.121,45.054,45.000,0.00,0.12,-272.56,-272.63,-24,584,-6,23.8,34.6,7.3,23.9,35.5,7.7,5.73,2.53,5.2,25.8
2013-08-28 00:03:00,0.0,1.86470,0.00088,387.580,0.278,1.2890,0.0020,140.003,45.000,31532.46328,1.88939,393.844,33.117,45.054,45.000,0.00,0.12,-272.55,-272.63,-24,584,-6,23.8,34.6,7.3,23.8,35.5,7.6,5.73,2.54,5.2,25.8
2013-08-28 00:04:00,0.0,1.86414,0.00186,387.310,0.135,1.2921,0.0037,140.001,45.000,31530.93031,1.88878,393.596,33.094,45.054,45.000,0.00,0.12,-272.56,-272.62,-24,584,-6,23.8,34.6,7.3,23.8,35.6,7.7,5.73,2.54,5.3,25.7
2013-08-28 00:05:00,0.0,1.86295,0.00104,387.257,0.047,1.2880,0.0027,140.001,45.000,31529.62261,1.88783,393.517,33.066,45.054,45.000,0.00,0.12,-272.56,-272.63,-24,584,-6,23.8,34.5,7.2,23.8,35.4,7.6,5.73,2.54,5.3,25.8
2013-08-28 00:06:00,0.0,1.86239,0.00077,387.181,0.057,1.2865,0.0014,139.999,45.000,31530.26817,1.88712,393.434,33.061,45.054,45.000,0.00,0.12,-272.56,-272.62,-24,584,-6,23.8,34.5,7.2,23.8,35.4,7.6,5.73,2.55,5.3,25.8
2013-08-28 00:07:00,0.0,1.86222,0.00098,387.156,0.044,1.2841,0.0030,140.006,45.000,31532.15598,1.88658,393.398,33.043,45.054,45.000,0.00,0.12,-272.56,-272.62,-24,584,-6,23.9,34.4,7.2,23.8,35.3,7.6,5.73,2.55,5.4,25.8
2013-08-28 00:08:00,0.0,1.86227,0.00079,387.124,0.026,1.2829,0.0023,139.999,44.999,31528.18869,1.88689,393.352,33.003,45.054,45.000,0.00,0.12,-272.56,-272.63,-24,584,-6,23.8,34.5,7.2,23.8,35.3,7.6,5.73,2.55,5.4,25.7
2013-08-28 00:09:00,0.0,1.86151,0.00110,387.095,0.019,1.2829,0.0022,140.003,45.000,31526.55009,1.88613,393.321,32.982,45.054,45.000,0.00,0.12,-272.56,-272.62,-24,584,-6,23.8,34.4,7.2,23.8,35.3,7.5,5.73,2.54,5.4,25.7
2013-08-28 00:10:00,0.0,1.86068,0.00067,387.077,0.049,1.2795,0.0025,139.994,45.000,31523.36383,1.88514,393.297,32.952,45.054,45.000,0.00,0.12,-272.56,-272.62,-24,584,-6,23.8,34.3,7.1,23.8,35.2,7.5,5.73,2.55,5.5,25.7
2013-08-28 00:11:00,0.0,1.86068,0.00125,387.042,0.052,1.2766,0.0023,140.004,45.000,31525.82738,1.88498,393.239,32.931,45.054,45.000,0.00,0.12,-272.56,-272.63,-24,584,-6,23.8,34.3,7.1,23.8,35.2,7.5,5.73,2.54,5.5,25.7
2013-08-28 00:12:00,0.0,1.86164,0.00092,387.048,0.026,1.2745,0.0035,139.994,44.999,31524.01596,1.88608,393.234,32.887,45.054,45.000,0.00,0.12,-272.56,-272.63,-24,584,-6,23.8,34.3,7.1,23.8,35.1,7.4,5.73,2.54,5.5,25.6
2013-08-28 00:13:00,0.0,1.86117,0.00097,387.012,0.041,1.2746,0.0022,140.004,45.000,31525.13383,1.88552,393.201,32.871,45.054,45.000,0.00,0.12,-272.56,-272.62,-24,584,-6,23.8,34.3,7.1,23.8,35.1,7.4,5.73,2.54,5.6,25.6
2013-08-28 00:14:00,0.0,1.86042,0.00121,386.987,0.033,1.2700,0.0015,140.001,45.000,31524.03755,1.88463,393.148,32.837,45.054,45.000,0.00,0.12,-272.56,-272.62,-24,584,-6,23.8,34.2,7.0,23.8,35.0,7.4,5.73,2.53,5.6,25.6
2013-08-28 00:15:00,0.0,1.86104,0.00078,386.975,0.045,1.2744,0.0031,140.005,44.999,31524.72880,1.88527,393.153,32.813,45.054,45.000,0.00,0.12,-272.56,-272.63,-24,584,-6,23.8,34.3,7.1,23.8,35.1,7.4,5.73,2.53,5.6,25.6
2013-08-28 00:16:00,0.0,1.86068,0.00097,386.938,0.031,1.2727,0.0018,139.997,44.999,31521.27831,1.88507,393.119,32.766,45.054,45.000,0.00,0.12,-272.56,-272.62,-24,584,-6,23.8,34.3,7.1,23.8,35.1,7.5,5.73,2.52,5.6,25.6
2013-08-28 00:17:00,0.0,1.86135,0.00044,386.944,0.022,1.2754,0.0016,140.005,45.000,31521.74814,1.88572,393.130,32.742,45.054,45.000,0.00,0.12,-272.56,-272.63,-24,584,-6,23.8,34.4,7.1,23.8,35.2,7.5,5.73,2.53,5.7,25.6
2013-08-28 00:18:00,0.0,1.86057,0.00107,386.895,0.037,1.2757,0.0011,140.001,45.000,31519.93032,1.88483,393.089,32.718,45.054,45.000,0.00,0.12,-272.56,-272.63,-24,584,-6,23.8,34.4,7.1,23.8,35.2,7.5,5.73,2.52,5.7,25.6
2013-08-28 00:19:00,0.0,1.86194,0.00041,386.869,0.010,1.2762,0.0017,139.997,45.000,31517.65581,1.88622,393.057,32.691,45.054,45.000,0.00,0.12,-272.56,-272.63,-24,584,-6,23.8,34.4,7.1,23.7,35.3,7.5,5.73,2.52,5.7,25.6
2013-08-28 00:20:00,0.0,1.86217,0.00028,386.842,0.022,1.2779,0.0021,140.005,45.000,31520.46828,1.88655,393.042,32.685,45.054,45.000,0.00,0.12,-272.56,-272.62,-24,584,-6,23.7,34.5,7.1,23.7,35.3,7.5,5.73,2.52,5.8,25.7
2013-08-28 00:21:00,0.0,1.86168,0.00073,386.844,0.047,1.2770,0.0030,139.999,45.000,31515.93398,1.88613,393.043,32.674,45.054,45.000,0.00,0.12,-272.56,-272.62,-24,584,-6,23.7,34.5,7.1,23.7,35.3,7.5,5.73,2.53,5.8,25.5
2013-08-28 00:22:00,0.0,1.86174,0.00099,386.815,0.024,1.2759,0.0025,140.002,45.000,31514.85800,1.88613,393.003,32.626,45.054,45.000,0.00,0.12,-272.57,-272.63,-24,584,-6,23.7,34.5,7.1,23.7,35.3,7.5,5.73,2.54,5.8,25.6
2013-08-28 00:23:00,0.0,1.86243,0.00055,386.751,0.063,1.2823,0.0075,139.998,45.000,31513.50947,1.88693,392.973,32.625,45.054,45.000,0.00,0.12,-272.56,-272.63,-24,583,-6,23.7,34.7,7.2,23.7,35.5,7.6,5.73,2.54,5.8,25.6
2013-08-28 00:24:00,0.0,1.86266,0.00069,386.685,0.011,1.2828,0.0022,140.001,45.000,31511.95270,1.88704,392.906,32.625,45.054,45.000,0.00,0.12,-272.56,-272.63,-24,583,-6,23.7,34.7,7.2,23.7,35.5,7.5,5.73,2.54,5.8,25.6
2013-08-28 00:25:00,0.0,1.86209,0.00138,386.654,0.036,1.2889,0.0039,140.000,45.000,31510.96578,1.88700,392.910,32.625,45.054,45.000,0.00,0.12,-272.56,-272.63,-24,583,-6,23.7,34.8,7.3,23.7,35.7,7.6,5.73,2.55,5.9,25.5
2013-08-28 00:26:00,0.0,1.86196,0.00105,386.640,0.035,1.2822,0.0017,140.000,45.000,31508.64728,1.88633,392.858,32.623,45.054,45.000,0.00,0.12,-272.56,-272.63,-24,583,-6,23.7,34.7,7.2,23.7,35.6,7.5,5.73,2.55,5.9,25.5
2013-08-28 00:27:00,0.0,1.86350,0.00113,386.636,0.025,1.2879,0.0056,140.006,45.000,31510.34019,1.88808,392.879,32.625,45.054,45.000,0.00,0.12,-272.56,-272.63,-24,583,-6,23.7,34.9,7.3,23.7,35.7,7.6,5.73,2.55,5.9,25.5
2013-08-28 00:28:00,0.0,1.86157,0.00083,386.570,0.033,1.2874,0.0048,140.002,45.000,31508.79761,1.88607,392.821,32.625,45.054,45.000,0.00,0.12,-272.56,-272.63,-24,583,-6,23.7,34.9,7.3,23.7,35.8,7.6,5.73,2.54,5.9,25.5
2013-08-28 00:29:00,0.0,1.86211,0.00095,386.564,0.039,1.2890,0.0029,140.003,45.000,31509.37438,1.88686,392.814,32.625,45.054,45.000,0.00,0.12,-272.56,-272.63,-24,583,-6,23.7,35.0,7.3,23.7,35.8,7.6,5.73,2.54,5.9,25.5
2013-08-28 00:30:00,0.0,1.86166,0.00078,386.585,0.046,1.2870,0.0019,140.001,45.000,31509.37390,1.88630,392.823,32.648,45.054,45.000,0.00,0.12,-272.56,-272.62,-24,583,-6,23.7,34.9,7.2,23.7,35.7,7.6,5.73,2.54,5.9,25.5
2013-08-28 00:31:00,0.0,1.86086,0.00099,386.590,0.029,1.2805,0.0034,140.007,45.000,31511.66571,1.88528,392.798,32.687,45.054,45.000,0.00,0.12,-272.56,-272.63,-24,583,-6,23.7,34.7,7.1,23.7,35.5,7.5,5.73,2.54,5.9,25.5
2013-08-28 00:32:00,0.0,1.86177,0.00116,386.570,0.023,1.2838,0.0029,139.997,45.000,31507.63214,1.88628,392.798,32.688,45.054,45.000,0.00,0.12,-272.56,-272.63,-24,583,-6,23.7,34.7,7.2,23.7,35.6,7.5,5.73,2.54,5.9,25.5
2013-08-28 00:33:00,0.0,1.86229,0.00085,386.579,0.020,1.2820,0.0027,140.005,45.000,31510.10669,1.88667,392.792,32.689,45.054,45.000,0.00,0.12,-272.56,-272.63,-24,583,-6,23.7,34.7,7.2,23.7,35.6,7.5,5.73,2.54,5.9,25.5
2013-08-28 00:34:00,0.0,1.86257,0.00090,386.581,0.027,1.2871,0.0036,139.999,45.000,31506.79536,1.88714,392.822,32.745,45.054,45.000,0.00,0.12,-272.56,-272.62,-24,583,-6,23.7,34.8,7.2,23.7,35.7,7.6,5.73,2.54,5.9,25.5
2013-08-28 00:35:00,0.0,1.86223,0.00057,386.537,0.021,1.2889,0.0027,140.003,45.000,31509.55965,1.88693,392.786,32.750,45.054,45.000,0.00,0.12,-272.56,-272.63,-24,583,-6,23.7,34.9,7.2,23.7,35.8,7.6,5.73,2.54,5.9,25.6
2013-08-28 00:36:00,0.0,1.86274,0.00067,386.569,0.028,1.2863,0.0015,139.999,45.000,31508.16288,1.88722,392.809,32.750,45.054,45.000,0.00,0.12,-272.56,-272.63,-24,583,-6,23.7,34.8,7.2,23.7,35.7,7.6,5.73,2.54,5.8,25.6
2013-08-28 00:37:00,0.0,1.86404,0.00073,386.516,0.043,1.2888,0.0032,140.001,45.000,31510.93502,1.88879,392.768,32.759,45.054,45.000,0.00,0.12,-272.56,-272.62,-24,583,-6,23.7,34.9,7.3,23.7,35.8,7.6,5.73,2.54,5.8,25.7
2013-08-28 00:38:00,0.0,1.86390,0.00089,386.460,0.043,1.2856,0.0044,140.000,45.000,31510.03726,1.88816,392.690,32.781,45.054,45.000,0.00,0.12,-272.56,-272.63,-24,583,-6,23.7,34.8,7.2,23.7,35.7,7.6,5.73,2.54,5.8,25.6
2013-08-28 00:39:00,0.0,1.86483,0.00140,386.466,0.048,1.2863,0.0040,140.005,45.000,31512.60523,1.88961,392.705,32.808,45.054,45.000,0.00,0.12,-272.56,-272.63,-24,583,-6,23.7,34.8,7.2,23.7,35.7,7.6,5.73,2.53,5.8,25.6
2013-08-28 00:40:00,0.0,1.86542,0.00081,386.425,0.037,1.2872,0.0032,139.998,45.000,31509.66321,1.88981,392.657,32.823,45.054,45.000,0.00,0.12,-272.56,-272.63,-24,583,-6,23.7,34.9,7.3,23.7,35.7,7.6,5.73,2.53,5.8,25.6
2013-08-28 00:41:00,0.0,1.86530,0.00204,386.436,0.026,1.2887,0.0020,139.998,45.000,31510.88855,1.89021,392.688,32.848,45.054,45.000,0.00,0.12,-272.55,-272.63,-24,583,-6,23.7,34.9,7.3,23.7,35.8,7.6,5.73,2.54,5.8,25.6
2013-08-28 00:42:00,0.0,1.86342,0.00196,386.444,0.020,1.2787,0.0042,140.001,45.000,31512.19453,1.88784,392.642,32.873,45.054,45.000,0.00,0.12,-272.56,-272.63,-24,583,-6,23.7,34.6,7.1,23.7,35.4,7.5,5.73,2.54,5.8,25.7
2013-08-28 00:43:00,0.0,1.86473,0.00040,386.375,0.038,1.2818,0.0033,140.002,45.000,31513.23869,1.88921,392.591,32.875,45.054,45.000,0.00,0.12,-272.56,-272.63,-24,583,-6,23.7,34.7,7.2,23.7,35.5,7.5,5.73,2.54,5.8,25.6
2013-08-28 00:44:00,0.0,1.86416,0.00132,386.326,0.025,1.2889,0.0034,140.001,45.000,31513.95504,1.88907,392.574,32.885,45.054,45.000,0.00,0.12,-272.55,-272.63,-24,583,-6,23.7,34.9,7.3,23.7,35.8,7.6,5.73,2.54,5.8,25.7
2013-08-28 00:45:00,0.0,1.86300,0.00106,386.266,0.041,1.2839,0.0032,140.001,45.000,31515.27317,1.88739,392.489,32.897,45.054,45.000,0.00,0.12,-272.56,-272.63,-24,584,-6,23.7,34.7,7.2,23.7,35.6,7.6,5.73,2.54,5.8,25.7
2013-08-28 00:46:00,0.0,1.86280,0.00046,386.177,0.028,1.2906,0.0020,140.001,45.000,31516.61562,1.88760,392.430,32.929,45.054,45.000,0.00,0.12,-272.56,-272.62,-24,584,-6,23.7,34.9,7.3,23.7,35.8,7.6,5.73,2.53,5.8,25.7
2013-08-28 00:47:00,0.0,1.86324,0.00051,386.118,0.063,1.2906,0.0019,140.002,45.000,31517.14091,1.88780,392.381,32.938,45.054,45.000,0.00,0.12,-272.56,-272.63,-24,584,-6,23.7,34.9,7.3,23.7,35.7,7.6,5.73,2.53,5.8,25.7
2013-08-28 00:48:00,0.0,1.86432,0.00113,385.995,0.074,1.2988,0.0044,139.997,45.000,31517.59511,1.88924,392.275,32.938,45.054,45.000,0.00,0.12,-272.56,-272.63,-24,583,-6,23.7,35.1,7.4,23.7,36.0,7.8,5.73,2.53,5.8,25.7
2013-08-28 00:49:00,0.0,1.86262,0.00155,386.096,0.072,1.2906,0.0036,140.002,45.000,31516.53810,1.88749,392.350,32.938,45.054,45.000,0.00,0.12,-272.57,-272.63,-24,584,-6,23.7,34.8,7.3,23.7,35.7,7.7,5.73,2.54,5.8,25.6
2013-08-28 00:50:00,0.0,1.86140,0.00160,386.126,0.034,1.2807,0.0051,140.003,45.000,31519.54126,1.88587,392.334,32.947,45.054,45.000,0.00,0.12,-272.56,-272.63,-24,583,-6,23.7,34.6,7.1,23.7,35.5,7.5,5.73,2.54,5.8,25.7
2013-08-28 00:51:00,0.0,1.86347,0.00131,386.016,0.094,1.2833,0.0066,140.000,45.000,31518.71967,1.88756,392.235,32.979,45.054,45.000,0.00,0.12,-272.56,-272.62,-24,583,-6,23.7,34.6,7.2,23.7,35.5,7.5,5.73,2.54,5.8,25.7
2013-08-28 00:52:00,0.0,1.86286,0.00097,385.975,0.065,1.2931,0.0055,140.002,45.000,31518.19984,1.88789,392.231,32.997,45.054,45.000,0.00,0.12,-272.56,-272.63,-24,583,-6,23.7,34.9,7.3,23.8,35.8,7.7,5.73,2.53,5.8,25.8
2013-08-28 00:53:00,0.0,1.86265,0.00106,385.999,0.050,1.2865,0.0015,140.000,45.000,31517.63932,1.88724,392.227,33.000,45.054,45.000,0.00,0.12,-272.56,-272.63,-24,583,-6,23.7,34.7,7.2,23.8,35.6,7.6,5.73,2.53,5.8,25.7
2013-08-28 00:54:00,0.0,1.86267,0.00177,385.933,0.073,1.2920,0.0063,139.998,45.000,31515.66041,1.88761,392.189,32.999,45.054,45.000,0.00,0.12,-272.55,-272.63,-24,584,-6,23.7,34.8,7.3,23.8,35.7,7.7,5.73,2.53,5.8,25.7
2013-08-28 00:55:00,0.0,1.86130,0.00117,386.065,0.048,1.2789,0.0058,140.001,45.000,31518.67287,1.88574,392.259,33.000,45.054,45.000,0.00,0.12,-272.56,-272.63,-24,584,-6,23.7,34.4,7.1,23.8,35.4,7.5,5.73,2.53,5.8,25.7
2013-08-28 00:56:00,0.0,1.86381,0.00135,386.098,0.059,1.2741,0.0074,140.002,45.000,31519.44967,1.88771,392.267,33.003,45.054,45.000,0.00,0.12,-272.56,-272.63,-24,584,-6,23.8,34.3,7.1,23.8,35.2,7.5,5.73,2.54,5.8,25.7
2013-08-28 00:57:00,0.0,1.86410,0.00083,385.982,0.021,1.2883,0.0029,140.003,45.000,31520.52765,1.88882,392.222,33.002,45.055,45.000,0.00,0.12,-272.56,-272.63,-24,584,-6,23.7,34.7,7.2,23.8,35.6,7.6,5.73,2.53,5.8,25.7
2013-08-28 00:58:00,0.0,1.86341,0.00108,386.039,0.043,1.2845,0.0049,140.001,45.000,31518.60827,1.88778,392.258,33.032,45.054,45.000,0.00,0.12,-272.55,-272.62,-24,584,-6,23.8,34.6,7.2,23.8,35.5,7.6,5.73,2.53,5.8,25.8
2013-08-28 00:59:00,0.0,1.86490,0.00071,386.031,0.032,1.2874,0.0021,140.001,45.000,31520.73138,1.88954,392.261,33.062,45.054,45.000,0.00,0.12,-272.56,-272.63,-24,584,-6,23.8,34.6,7.2,23.8,35.6,7.6,5.73,2.53,5.8,25.7
2013-08-28 01:00:00,0.0,1.86482,0.00105,386.048,0.039,1.2871,0.0033,139.995,45.000,31520.63787,1.88962,392.282,33.063,45.054,45.000,0.00,0.12,-272.56,-272.63,-24,584,-6,23.8,34.6,7.3,23.8,35.5,7.6,5.73,2.53,5.8,25.8
2013-08-28 01:01:00,0.0,1.86360,0.00111,386.075,0.021,1.2818,0.0016,140.007,45.000,31523.92880,1.88817,392.282,33.063,45.054,45.000,0.00,0.12,-272.56,-272.62,-24,584,-6,23.8,34.5,7.2,23.8,35.4,7.6,5.73,2.53,5.8,25.8
2013-08-28 01:02:00,0.0,1.86271,0.00120,386.098,0.060,1.2757,0.0053,139.996,45.000,31523.02889,1.88704,392.269,33.063,45.054,45.000,0.00,0.12,-272.56,-272.63,-24,584,-6,23.8,34.3,7.1,23.8,35.1,7.4,5.73,2.53,5.8,25.8
2013-08-28 01:03:00,0.0,1.86179,0.00105,386.149,0.020,1.2736,0.0040,140.000,45.000,31522.15187,1.88634,392.316,33.063,45.054,45.000,0.00,0.12,-272.56,-272.63,-24,584,-6,23.8,34.2,7.0,23.8,35.1,7.4,5.73,2.53,5.8,25.8
2013-08-28 01:04:00,0.0,1.86181,0.00146,386.142,0.018,1.2695,0.0040,139.998,45.000,31524.08983,1.88600,392.289,33.074,45.054,45.000,0.00,0.12,-272.56,-272.62,-24,584,-6,23.8,34.1,7.0,23.8,35.0,7.4,5.73,2.54,5.8,25.8
2013-08-28 01:05:00,0.0,1.86170,0.00154,386.190,0.051,1.2701,0.0036,140.005,45.000,31525.29225,1.88586,392.339,33.083,45.054,45.000,0.00,0.12,-272.56,-272.63,-24,584,-6,23.8,34.1,7.0,23.8,35.0,7.4,5.73,2.53,5.8,25.9
2013-08-28 01:06:00,0.0,1.86328,0.00109,386.104,0.028,1.2788,0.0042,140.002,45.000,31527.55455,1.88759,392.293,33.124,45.054,45.000,0.00,0.12,-272.56,-272.63,-24,584,-6,23.8,34.4,7.1,23.8,35.2,7.5,5.73,2.53,5.8,25.9
2013-08-28 01:07:00,0.0,1.86245,0.00097,386.087,0.014,1.2767,0.0038,140.002,45.000,31530.53797,1.88707,392.271,33.123,45.054,45.000,0.00,0.12,-272.56,-272.62,-24,584,-6,23.8,34.2,7.1,23.8,35.2,7.5,5.73,2.53,5.8,25.9
2013-08-28 01:08:00,0.0,1.86090,0.00091,386.137,0.027,1.2724,0.0049,140.003,45.000,31532.41213,1.88538,392.299,33.125,45.054,45.000,0.00,0.12,-272.55,-272.62,-24,584,-6,23.8,34.1,7.0,23.8,35.0,7.4,5.73,2.53,5.8,25.9
2013-08-28 01:09:00,0.0,1.86108,0.00073,386.157,0.031,1.2646,0.0054,139.998,45.000,31529.88979,1.88509,392.276,33.125,45.054,45.000,0.00,0.12,-272.56,-272.63,-24,584,-6,23.8,33.9,7.0,23.8,34.8,7.3,5.73,2.53,5.8,25.8
2013-08-28 01:10:00,0.0,1.86251,0.00047,386.204,0.054,1.2651,0.0026,140.001,45.000,31529.95268,1.88655,392.330,33.125,45.054,45.000,0.00,0.12,-272.55,-272.63,-24,584,-6,23.8,33.9,6.9,23.9,34.8,7.4,5.73,2.53,5.8,25.8
2013-08-28 01:11:00,0.0,1.86278,0.00068,386.203,0.060,1.2637,0.0035,140.002,45.000,31529.07139,1.88683,392.322,33.127,45.054,45.000,0.00,0.12,-272.56,-272.62,-24,584,-6,23.8,33.9,7.0,23.8,34.7,7.3,5.73,2.53,5.8,26.0
2013-08-28 01:12:00,0.0,1.86264,0.00054,386.033,0.061,1.2755,0.0048,140.006,45.000,31529.42173,1.88705,392.202,33.125,45.054,45.000,0.00,0.12,-272.56,-272.63,-24,584,-6,23.8,34.2,7.1,23.8,35.1,7.5,5.73,2.53,5.8,25.9
2013-08-28 01:13:00,0.0,1.86295,0.00095,386.079,0.035,1.2774,0.0061,139.999,45.000,31527.64615,1.88733,392.259,33.125,45.054,45.000,0.00,0.12,-272.56,-272.63,-24,584,-6,23.8,34.2,7.1,23.8,35.1,7.5,5.73,2.53,5.8,25.8
2013-08-28 01:14:00,0.0,1.86345,0.00066,386.026,0.057,1.2946,0.0056,139.998,45.000,31527.79661,1.88819,392.300,33.127,45.054,45.000,0.00,0.12,-272.55,-272.62,-24,584,-6,23.8,34.7,7.3,23.9,35.6,7.7,5.73,2.54,5.8,25.8
2013-08-28 01:15:00,0.0,1.86429,0.00051,386.113,0.061,1.2939,0.0028,139.999,45.000,31529.51685,1.88889,392.376,33.127,45.054,45.000,0.00,0.12,-272.56,-272.63,-24,584,-6,23.9,34.6,7.3,23.8,35.6,7.7,5.73,2.53,5.8,25.8
2013-08-28 01:16:00,0.0,1.86557,0.00088,386.114,0.024,1.2965,0.0035,140.004,45.000,31533.43816,1.89043,392.391,33.154,45.054,45.000,0.00,0.12,-272.56,-272.63,-24,584,-6,23.8,34.8,7.3,23.9,35.7,7.7,5.73,2.54,5.8,25.8
2013-08-28 01:17:00,0.0,1.86695,0.00193,386.137,0.060,1.2983,0.0054,140.000,45.000,31532.89102,1.89128,392.418,33.170,45.054,45.000,0.00,0.12,-272.55,-272.62,-24,584,-6,23.9,34.8,7.4,23.8,35.7,7.7,5.73,2.53,5.8,25.8
2013-08-28 01:18:00,0.0,1.86755,0.00111,386.140,0.024,1.3041,0.0027,140.008,45.000,31530.02088,1.89275,392.466,33.183,45.054,45.000,0.00,0.12,-272.56,-272.62,-24,584,-6,23.9,34.9,7.4,23.9,35.9,7.8,5.73,2.53,5.8,25.8
2013-08-28 01:19:00,0.0,1.86753,0.00109,386.114,0.027,1.2975,0.0038,139.996,45.000,31527.99452,1.89230,392.405,33.187,45.054,45.000,0.00,0.12,-272.56,-272.63,-24,584,-6,23.9,34.8,7.4,23.9,35.7,7.8,5.73,2.53,5.8,25.8
2013-08-28 01:20:00,0.0,1.86494,0.00172,386.032,0.040,1.2901,0.0075,140.002,45.000,31530.19663,1.88990,392.289,33.187,45.054,45.000,0.00,0.12,-272.56,-272.62,-24,584,-6,23.9,34.5,7.3,23.9,35.4,7.6,5.73,2.53,5.8,25.9
2013-08-28 01:21:00,0.0,1.86635,0.00141,386.103,0.071,1.2781,0.0061,140.002,45.000,31533.04490,1.89061,392.288,33.185,45.054,45.000,0.00,0.12,-272.55,-272.63,-24,584,-6,23.9,34.1,7.1,23.9,35.0,7.5,5.73,2.53,5.8,25.9
2013-08-28 01:22:00,0.0,1.86638,0.00215,386.033,0.043,1.2825,0.0039,140.002,45.000,31532.56598,1.89069,392.246,33.188,45.054,45.000,0.00,0.12,-272.56,-272.63,-24,584,-6,23.9,34.2,7.1,23.9,35.1,7.6,5.73,2.53,5.8,25.9
2013-08-28 01:23:00,0.0,1.86747,0.00184,386.052,0.045,1.2833,0.0027,140.001,45.000,31532.72854,1.89207,392.265,33.191,45.054,45.000,0.00,0.12,-272.56,-272.62,-24,584,-6,23.9,34.2,7.2,23.9,35.2,7.5,5.73,2.53,5.8,25.9
2013-08-28 01:24:00,0.0,1.86841,0.00184,386.027,0.024,1.2864,0.0037,140.006,45.000,31536.18418,1.89347,392.252,33.192,45.054,45.000,0.00,0.12,-272.56,-272.62,-24,584,-6,23.9,34.4,7.2,23.9,35.3,7.6,5.73,2.53,5.8,25.9
2013-08-28 01:25:00,0.0,1.86737,0.00166,386.086,0.029,1.2831,0.0026,140.002,45.000,31533.29097,1.89161,392.297,33.190,45.054,45.000,0.00,0.12,-272.56,-272.63,-24,584,-6,23.9,34.2,7.2,23.9,35.2,7.6,5.73,2.53,5.8,25.9
2013-08-28 01:26:00,0.0,1.86798,0.00157,386.077,0.041,1.2870,0.0050,140.005,45.000,31535.14654,1.89260,392.309,33.204,45.054,45.000,0.00,0.12,-272.56,-272.62,-24,584,-6,23.9,34.3,7.2,23.9,35.3,7.6,5.73,2.53,5.8,25.9
2013-08-28 01:27:00,0.0,1.87027,0.00157,386.090,0.026,1.2886,0.0037,140.002,45.000,31535.89418,1.89516,392.329,33.216,45.054,45.000,0.00,0.13,-272.56,-272.62,-24,584,-6,23.9,34.4,7.3,23.9,35.3,7.6,5.73,2.53,5.8,25.9
2013-08-28 01:28:00,0.0,1.86941,0.00147,386.107,0.051,1.2837,0.0032,139.998,45.000,31534.09271,1.89384,392.324,33.225,45.054,45.000,0.00,0.12,-272.56,-272.62,-24,584,-6,23.9,34.2,7.2,23.9,35.1,7.6,5.73,2.53,5.8,25.8
2013-08-28 01:29:00,0.0,1.87077,0.00127,386.080,0.036,1.2842,0.0038,140.002,45.000,31535.22773,1.89550,392.302,33.230,45.054,45.000,0.00,0.12,-272.56,-272.63,-24,584,-6,23.9,34.2,7.2,23.9,35.1,7.5,5.73,2.53,5.8,25.9
2013-08-28 01:30:00,0.0,1.87091,0.00113,386.059,0.034,1.2816,0.0036,139.998,45.000,31535.60325,1.89516,392.263,33.220,45.054,45.000,0.00,0.12,-272.56,-272.62,-24,584,-6,23.9,34.2,7.2,23.9,35.1,7.5,5.73,2.54,5.8,25.9
2013-08-28 01:31:00,0.0,1.87075,0.00161,386.056,0.036,1.2896,0.0025,140.003,45.000,31535.66623,1.89559,392.300,33.218,45.054,45.000,0.00,0.12,-272.56,-272.62,-24,584,-6,23.9,34.4,7.2,23.9,35.3,7.6,5.73,2.53,5.8,26.0
2013-08-28 01:32:00,0.0,1.87147,0.00208,386.017,0.054,1.2908,0.0045,140.003,45.000,31533.22309,1.89646,392.270,33.214,45.054,45.000,0.00,0.12,-272.56,-272.63,-24,584,-6,23.9,34.4,7.3,23.9,35.3,7.6,5.73,2.53,5.8,26.0
2013-08-28 01:33:00,0.0,1.87062,0.00143,386.034,0.028,1.2885,0.0022,140.001,45.000,31533.81447,1.89532,392.273,33.204,45.054,45.000,0.00,0.12,-272.56,-272.63,-24,584,-6,23.9,34.3,7.3,23.9,35.2,7.6,5.73,2.53,5.8,26.0
2013-08-28 01:34:00,0.0,1.87070,0.00145,385.983,0.015,1.2890,0.0036,140.007,45.000,31534.61833,1.89547,392.224,33.191,45.054,45.000,0.00,0.12,-272.56,-272.62,-24,584,-6,23.9,34.3,7.2,23.9,35.2,7.6,5.73,2.52,5.8,25.9
2013-08-28 01:35:00,0.0,1.86841,0.00119,385.978,0.048,1.2854,0.0044,140.006,45.000,31535.04768,1.89330,392.206,33.195,45.054,45.000,0.00,0.12,-272.55,-272.63,-24,584,-6,24.0,34.2,7.2,23.9,35.1,7.6,5.73,2.53,5.8,26.0
2013-08-28 01:36:00,0.0,1.87019,0.00130,385.939,0.047,1.2865,0.0039,140.002,45.000,31537.37041,1.89462,392.165,33.189,45.054,45.000,0.00,0.12,-272.56,-272.63,-24,584,-6,23.9,34.2,7.2,23.9,35.1,7.6,5.73,2.53,5.8,26.0
2013-08-28 01:37:00,0.0,1.86872,0.00166,385.939,0.024,1.2811,0.0049,139.998,45.000,31535.35718,1.89366,392.144,33.188,45.054,45.000,0.00,0.12,-272.55,-272.62,-25,584,-6,23.9,34.0,7.1,23.9,35.0,7.5,5.73,2.53,5.8,26.0
2013-08-28 01:38:00,0.0,1.86806,0.00094,385.967,0.024,1.2722,0.0017,140.003,45.000,31536.33559,1.89229,392.123,33.191,45.054,45.000,0.00,0.12,-272.56,-272.62,-25,584,-6,24.0,33.8,7.1,23.9,34.7,7.4,5.73,2.54,5.8,26.0
2013-08-28 01:39:00,0.0,1.86807,0.00057,385.989,0.036,1.2728,0.0013,140.003,45.000,31534.49623,1.89234,392.148,33.200,45.054,45.000,0.00,0.12,-272.56,-272.63,-25,585,-6,23.9,33.8,7.0,23.9,34.7,7.4,5.73,2.53,5.8,26.0
2013-08-28 01:40:00,0.0,1.86727,0.00110,385.976,0.039,1.2689,0.0058,139.999,45.000,31536.13160,1.89170,392.120,33.220,45.054,45.000,0.00,0.12,-272.56,-272.63,-25,584,-6,24.0,33.7,7.0,24.0,34.6,7.4,5.73,2.53,5.8,26.0
2013-08-28 01:41:00,0.0,1.86747,0.00121,385.963,0.029,1.2675,0.0021,139.999,45.000,31535.27131,1.89177,392.095,33.223,45.054,45.000,0.00,0.13,-272.55,-272.62,-25,584,-6,24.0,33.7,7.0,24.0,34.6,7.4,5.73,2.53,5.7,26.0
2013-08-28 01:42:00,0.0,1.86744,0.00093,385.940,0.029,1.2666,0.0027,140.001,45.000,31536.53332,1.89169,392.068,33.248,45.054,45.000,0.00,0.12,-272.56,-272.63,-25,584,-6,24.0,33.6,7.0,24.0,34.5,7.3,5.73,2.53,5.8,26.0
2013-08-28 01:43:00,0.0,1.86707,0.00061,385.877,0.042,1.2647,0.0024,140.005,45.000,31536.73071,1.89138,391.996,33.245,45.054,45.000,0.00,0.12,-272.56,-272.62,-25,584,-6,24.0,33.6,7.0,24.0,34.5,7.4,5.73,2.53,5.8,26.0
2013-08-28 01:44:00,0.0,1.86752,0.00149,385.900,0.029,1.2625,0.0023,139.998,45.000,31533.11840,1.89152,392.005,33.250,45.054,45.000,0.00,0.12,-272.56,-272.62,-25,584,-6,24.0,33.5,6.9,24.0,34.4,7.3,5.73,2.52,5.8,25.9
2013-08-28 01:45:00,0.0,1.86795,0.00130,385.890,0.025,1.2666,0.0027,139.999,45.000,31538.05388,1.89238,392.018,33.250,45.054,45.000,0.00,0.12,-272.55,-272.62,-25,584,-6,24.0,33.6,7.0,24.0,34.5,7.4,5.73,2.53,5.8,26.1
2013-08-28 01:46:00,0.0,1.86666,0.00070,385.919,0.050,1.2600,0.0035,140.002,45.000,31537.53596,1.89078,392.014,33.250,45.054,45.000,0.00,0.12,-272.56,-272.63,-25,584,-6,24.0,33.5,6.9,24.0,34.3,7.3,5.73,2.53,5.8,26.0
2013-08-28 01:47:00,0.0,1.86602,0.00157,385.946,0.029,1.2517,0.0039,140.001,45.000,31539.38083,1.88994,392.002,33.250,45.054,45.000,0.00,0.12,-272.56,-272.62,-25,584,-6,24.0,33.2,6.8,24.0,34.1,7.2,5.73,2.53,5.8,25.8